"startDT [UTC]","vpos","CH4 [ppm]","stdev(CH4) [ppm]","CO2 [ppm]","stdev(CO2) [ppm]","H2O_reported [%]","stdev(H2O_reported)","CavityPressure [torr]","CavityTemp [C]","OutletValve","CH4_dry [ppm]","CO2_dry [ppm]","DasTemp [C]","EtalonTemp [C]","WarmBoxTemp [C]","MPVPosition","T_ECpre [C]","T_EC1 [C]","T_EC2 [C]","p_inlet [hPa]","p_in [hPa]","p_out [hPa]","T_inlet [C]","RH_inlet [%]","dwpt_inlet [C]","T_vent [C]","RH_vent [%]","dwpt_vent [C]","flow_vent [l min-1]","flow_inlet [l min-1]","dwpt_sample [C]","T_room [C]"
2016-03-15 00:00:00,0.0,1.95723,0.00057,406.298,0.099,0.0267,0.0015,140.003,45.897,32323.48620,1.95777,406.433,28.875,45.077,45.004,0.00,0.08,-272.75,-272.80,-1,500,-939,15.2,1.1,-39.5,15.4,1.2,-38.9,5.73,2.14,-25.3,21.7
2016-03-15 00:01:00,0.0,1.95621,0.00078,405.992,0.102,0.0269,0.0020,140.002,46.034,32369.71297,1.95680,406.129,28.951,45.076,45.003,0.00,0.08,-272.75,-272.80,-0,500,-939,15.2,1.1,-39.5,15.4,1.2,-38.8,5.73,1.86,-25.3,21.7
2016-03-15 00:02:00,0.0,1.95426,0.00055,405.741,0.068,0.0273,0.0023,140.000,46.162,32398.52647,1.95484,405.877,29.040,45.075,45.002,0.00,0.08,-272.76,-272.81,-1,500,-939,15.2,1.2,-39.2,15.3,1.2,-38.7,5.73,2.21,-25.3,21.7
2016-03-15 00:03:00,0.0,1.95268,0.00070,405.527,0.065,0.0279,0.0017,139.998,46.277,32416.48042,1.95328,405.665,29.126,45.074,45.001,0.00,0.08,-272.75,-272.81,-1,500,-939,15.2,1.2,-39.0,15.3,1.3,-38.4,5.73,2.05,-25.3,21.7
2016-03-15 00:04:00,0.0,1.95124,0.00062,405.347,0.085,0.0292,0.0015,139.999,46.381,32423.23318,1.95183,405.494,29.210,45.073,45.001,0.00,0.08,-272.75,-272.80,-0,500,-939,15.2,1.2,-38.7,15.4,1.3,-38.1,5.73,1.91,-25.3,21.7
2016-03-15 00:05:00,0.0,1.95011,0.00040,405.153,0.029,0.0293,0.0021,139.997,46.473,32418.92319,1.95070,405.296,29.269,45.072,45.000,0.00,0.08,-272.76,-272.80,-1,500,-939,15.2,1.2,-38.7,15.4,1.3,-38.0,5.73,2.24,-25.3,21.7
2016-03-15 00:06:00,0.0,1.94950,0.00050,405.050,0.060,0.0297,0.0016,139.998,46.552,32409.00681,1.95010,405.196,29.310,45.072,44.999,0.00,0.08,-272.75,-272.81,-2,500,-939,15.2,1.3,-38.5,15.4,1.3,-37.9,5.73,1.96,-25.3,21.7
2016-03-15 00:07:00,0.0,1.94875,0.00047,404.895,0.033,0.0291,0.0012,139.998,46.617,32390.75566,1.94935,405.039,29.313,45.071,44.999,0.00,0.08,-272.75,-272.79,-1,500,-939,15.2,1.3,-38.5,15.4,1.3,-37.8,5.73,1.99,-25.3,21.7
2016-03-15 00:08:00,0.0,1.94796,0.00046,404.817,0.038,0.0294,0.0017,139.998,46.672,32365.43670,1.94852,404.962,29.347,45.071,44.999,0.00,0.08,-272.76,-272.80,-1,500,-939,15.2,1.3,-38.5,15.4,1.3,-37.8,5.73,2.23,-25.3,21.7
2016-03-15 00:09:00,0.0,1.94759,0.00040,404.721,0.050,0.0299,0.0016,139.996,46.716,32337.05894,1.94817,404.869,29.375,45.072,45.000,0.00,0.08,-272.75,-272.81,-2,500,-939,15.2,1.2,-38.6,15.4,1.3,-37.9,5.73,1.88,-25.3,21.7
2016-03-15 00:10:00,0.0,1.94715,0.00039,404.605,0.035,0.0290,0.0018,139.995,46.753,32303.90215,1.94771,404.747,29.401,45.072,44.999,0.00,0.08,-272.75,-272.80,-1,500,-939,15.2,1.2,-38.7,15.4,1.3,-38.0,5.73,2.10,-25.3,21.7
2016-03-15 00:11:00,0.0,1.94607,0.00061,404.640,0.037,0.0292,0.0019,139.995,46.782,32266.35362,1.94670,404.781,29.428,45.072,45.000,0.00,0.08,-272.74,-272.81,-0,500,-939,15.2,1.2,-38.7,15.4,1.3,-38.0,5.73,2.16,-25.3,21.7
2016-03-15 00:12:00,0.0,1.94544,0.00038,404.561,0.039,0.0293,0.0016,139.997,46.801,32229.79173,1.94599,404.704,29.444,45.072,45.000,0.00,0.08,-272.75,-272.81,-2,500,-939,15.2,1.2,-38.7,15.4,1.3,-38.0,5.73,1.86,-25.3,21.7
2016-03-15 00:13:00,0.0,1.94558,0.00041,404.516,0.028,0.0286,0.0014,139.996,46.811,32187.43396,1.94614,404.656,29.489,45.072,44.999,0.00,0.08,-272.76,-272.80,-1,500,-939,15.3,1.2,-38.6,15.4,1.3,-38.0,5.73,2.19,-25.3,21.7
2016-03-15 00:14:00,0.0,1.94579,0.00061,404.498,0.028,0.0295,0.0021,139.995,46.812,32143.18587,1.94631,404.642,29.500,45.072,44.999,0.00,0.08,-272.75,-272.80,-0,500,-939,15.3,1.2,-38.9,15.4,1.3,-38.0,5.73,2.06,-25.3,21.7
2016-03-15 00:15:00,0.0,1.94704,0.00085,404.476,0.039,0.0283,0.0015,139.995,46.807,32098.86316,1.94754,404.613,29.513,45.072,44.999,0.00,0.08,-272.76,-272.81,-1,500,-939,15.3,1.2,-38.8,15.4,1.3,-38.0,5.73,1.91,-25.3,21.7
2016-03-15 00:16:00,0.0,1.94595,0.00056,404.501,0.038,0.0294,0.0024,139.997,46.793,32052.83039,1.94659,404.643,29.547,45.072,44.999,0.00,0.08,-272.76,-272.81,-1,500,-939,15.3,1.2,-38.7,15.4,1.3,-38.0,5.73,2.24,-25.3,21.7
2016-03-15 00:17:00,0.0,1.94534,0.00048,404.558,0.051,0.0295,0.0019,139.996,46.771,32004.36769,1.94588,404.701,29.558,45.072,44.999,0.00,0.08,-272.74,-272.81,-0,500,-939,15.3,1.3,-38.5,15.4,1.3,-37.9,5.73,1.95,-25.3,21.8
2016-03-15 00:18:00,0.0,1.94566,0.00037,404.648,0.039,0.0304,0.0022,139.994,46.741,31956.63698,1.94626,404.792,29.550,45.071,44.999,0.00,0.08,-272.75,-272.80,-1,500,-939,15.3,1.3,-38.2,15.5,1.4,-37.7,5.73,2.01,-25.3,21.8
2016-03-15 00:19:00,0.0,1.94631,0.00052,404.738,0.048,0.0318,0.0018,139.995,46.704,31906.82937,1.94687,404.891,29.562,45.071,44.999,0.00,0.08,-272.75,-272.80,-2,500,-939,15.3,1.3,-38.0,15.4,1.4,-37.4,5.73,2.23,-25.3,21.7
2016-03-15 00:20:00,0.0,1.94734,0.00049,404.848,0.029,0.0311,0.0016,139.995,46.660,31855.38873,1.94791,404.999,29.563,45.071,44.999,0.00,0.08,-272.75,-272.80,-1,500,-939,15.3,1.3,-37.8,15.4,1.4,-37.3,5.73,1.87,-25.3,21.7
2016-03-15 00:21:00,0.0,1.94768,0.00039,404.919,0.044,0.0320,0.0014,139.995,46.609,31806.78496,1.94830,405.072,29.565,45.072,44.999,0.00,0.08,-272.75,-272.79,-1,500,-939,15.3,1.4,-37.7,15.5,1.4,-37.1,5.73,2.13,-25.3,21.8
2016-03-15 00:22:00,0.0,1.94846,0.00040,405.045,0.047,0.0314,0.0018,139.997,46.552,31759.36681,1.94903,405.196,29.562,45.072,45.000,0.00,0.08,-272.75,-272.81,-2,500,-939,15.3,1.4,-37.6,15.5,1.4,-37.2,5.73,2.14,-25.3,21.8
2016-03-15 00:23:00,0.0,1.94919,0.00063,405.187,0.068,0.0319,0.0014,139.996,46.489,31711.08282,1.94975,405.339,29.562,45.072,45.000,0.00,0.08,-272.75,-272.81,-1,500,-939,15.3,1.4,-37.6,15.5,1.4,-37.2,5.73,1.87,-25.2,21.8
2016-03-15 00:24:00,0.0,1.95004,0.00041,405.347,0.051,0.0323,0.0015,139.995,46.421,31658.72986,1.95064,405.503,29.557,45.072,45.000,0.00,0.08,-272.75,-272.80,-1,500,-939,15.3,1.4,-37.6,15.5,1.4,-37.1,5.73,2.23,-25.3,21.8
2016-03-15 00:25:00,0.0,1.95109,0.00064,405.498,0.048,0.0307,0.0021,139.995,46.348,31609.50655,1.95165,405.645,29.535,45.072,45.000,0.00,0.08,-272.75,-272.81,-2,500,-939,15.3,1.4,-37.6,15.5,1.4,-37.1,5.73,2.01,-25.3,21.8
2016-03-15 00:26:00,0.0,1.95188,0.00059,405.630,0.065,0.0320,0.0025,139.996,46.269,31560.65425,1.95246,405.784,29.530,45.072,45.000,0.00,0.08,-272.76,-272.81,-1,500,-939,15.4,1.4,-37.6,15.5,1.4,-37.2,5.73,1.94,-25.3,21.8
2016-03-15 00:27:00,0.0,1.95275,0.00054,405.811,0.044,0.0317,0.0021,139.994,46.185,31511.35316,1.95332,405.964,29.515,45.072,45.000,0.00,0.08,-272.75,-272.80,-0,500,-939,15.4,1.4,-37.6,15.5,1.4,-37.0,5.73,2.24,-25.2,21.8
2016-03-15 00:28:00,0.0,1.95388,0.00056,405.935,0.052,0.0323,0.0017,139.994,46.097,31463.93192,1.95447,406.089,29.497,45.072,45.000,0.00,0.08,-272.74,-272.81,-2,500,-939,15.4,1.4,-37.5,15.5,1.5,-36.9,5.73,1.90,-25.2,21.8
2016-03-15 00:29:00,0.0,1.95485,0.00032,406.082,0.037,0.0321,0.0017,139.999,46.005,31419.20466,1.95544,406.238,29.492,45.072,45.000,0.00,0.08,-272.76,-272.81,-2,500,-939,15.4,1.4,-37.4,15.5,1.5,-36.7,5.73,2.07,-25.2,21.8
2016-03-15 00:30:00,0.0,1.95537,0.00044,406.218,0.070,0.0319,0.0015,139.998,45.908,31374.10135,1.95595,406.371,29.485,45.072,45.000,0.00,0.08,-272.75,-272.81,-0,500,-939,15.4,1.4,-37.5,15.5,1.5,-36.9,5.73,2.18,-25.2,21.8
2016-03-15 00:31:00,0.0,1.95654,0.00053,406.427,0.080,0.0319,0.0016,139.998,45.808,31328.77848,1.95713,406.578,29.467,45.072,45.000,0.00,0.08,-272.75,-272.80,-2,500,-939,15.4,1.4,-37.6,15.5,1.5,-36.9,5.73,1.86,-25.2,21.8
2016-03-15 00:32:00,0.0,1.95806,0.00068,406.659,0.073,0.0324,0.0012,139.993,45.704,31282.37775,1.95864,406.814,29.456,45.072,45.000,0.00,0.08,-272.76,-272.80,-2,500,-939,15.4,1.4,-37.4,15.5,1.5,-36.9,5.73,2.19,-25.2,21.8
2016-03-15 00:33:00,0.0,1.95963,0.00078,406.900,0.080,0.0326,0.0015,139.997,45.598,31240.56132,1.96019,407.055,29.445,45.072,45.000,0.00,0.08,-272.75,-272.81,-1,500,-939,15.4,1.4,-37.4,15.5,1.5,-36.8,5.73,2.04,-25.2,21.8
2016-03-15 00:34:00,0.0,1.96025,0.00043,407.085,0.059,0.0331,0.0017,139.995,45.490,31198.89238,1.96089,407.243,29.440,45.072,45.000,0.00,0.08,-272.75,-272.80,-2,500,-939,15.4,1.4,-37.3,15.5,1.5,-36.8,5.73,1.91,-25.2,21.8
2016-03-15 00:35:00,0.0,1.96120,0.00060,407.275,0.077,0.0329,0.0015,139.995,45.379,31160.81893,1.96177,407.433,29.438,45.072,45.000,0.00,0.08,-272.75,-272.80,-2,500,-939,15.4,1.4,-37.1,15.5,1.5,-36.6,5.73,2.24,-25.3,21.8
2016-03-15 00:36:00,0.0,1.96277,0.00053,407.492,0.079,0.0320,0.0013,139.995,45.263,31122.19790,1.96337,407.646,29.434,45.072,45.000,0.00,0.08,-272.75,-272.81,-1,500,-939,15.4,1.4,-37.2,15.5,1.5,-36.6,5.73,1.91,-25.2,21.9
2016-03-15 00:37:00,0.0,1.96363,0.00038,407.714,0.069,0.0317,0.0013,139.998,45.148,31085.30589,1.96420,407.866,29.420,45.072,45.000,0.00,0.08,-272.75,-272.80,-1,500,-939,15.4,1.4,-37.2,15.5,1.5,-36.6,5.73,2.07,-25.2,21.8
2016-03-15 00:38:00,0.0,1.96445,0.00056,407.861,0.060,0.0330,0.0017,139.999,45.030,31044.13535,1.96505,408.021,29.386,45.072,45.000,0.00,0.08,-272.75,-272.80,-2,500,-939,15.5,1.4,-37.0,15.6,1.5,-36.5,5.73,2.17,-25.2,21.8
2016-03-15 00:39:00,0.0,1.96582,0.00063,408.113,0.075,0.0331,0.0017,139.993,44.912,30995.64969,1.96643,408.272,29.375,45.072,45.000,0.00,0.08,-272.75,-272.81,-1,500,-939,15.5,1.5,-36.8,15.6,1.5,-36.3,5.73,1.85,-25.2,21.9
2016-03-15 00:40:00,0.0,1.96674,0.00056,408.339,0.072,0.0331,0.0016,139.992,44.796,30926.65659,1.96736,408.497,29.361,45.071,44.998,0.00,0.08,-272.75,-272.80,-1,500,-939,15.4,1.5,-36.7,15.6,1.6,-36.2,5.73,2.20,-25.2,21.8
2016-03-15 00:41:00,0.0,1.96802,0.00039,408.566,0.074,0.0344,0.0015,139.998,44.686,30868.36156,1.96864,408.731,29.319,45.068,44.995,0.00,0.08,-272.75,-272.81,-2,500,-939,15.5,1.5,-36.7,15.6,1.6,-36.1,5.73,2.03,-25.2,21.9
2016-03-15 00:42:00,0.0,1.96887,0.00042,408.728,0.051,0.0341,0.0018,140.000,44.594,30854.13670,1.96950,408.894,29.287,45.066,44.993,0.00,0.08,-272.75,-272.81,-1,500,-939,15.4,1.5,-36.5,15.6,1.6,-35.9,5.73,1.92,-25.2,21.9
2016-03-15 00:43:00,0.0,1.96967,0.00044,408.815,0.029,0.0329,0.0013,140.000,44.531,30870.24767,1.97026,408.975,29.253,45.065,44.993,0.00,0.08,-272.76,-272.81,-1,500,-939,15.5,1.5,-36.4,15.6,1.6,-35.8,5.73,2.25,-25.2,21.9
2016-03-15 00:44:00,0.0,1.97008,0.00029,408.881,0.026,0.0332,0.0018,140.001,44.493,30915.13234,1.97075,409.043,29.249,45.065,44.994,0.00,0.08,-272.75,-272.80,-2,500,-939,15.5,1.5,-36.6,15.6,1.6,-35.9,5.73,1.90,-25.2,21.9
2016-03-15 00:45:00,0.0,1.97022,0.00036,408.896,0.024,0.0338,0.0016,140.003,44.486,30987.63722,1.97086,409.062,29.222,45.066,44.995,0.00,0.08,-272.76,-272.80,-2,501,-939,15.5,1.5,-36.4,15.6,1.6,-35.9,5.73,2.06,-25.2,21.8
2016-03-15 00:46:00,0.0,1.96963,0.00056,408.873,0.039,0.0356,0.0017,140.006,44.511,31088.65198,1.97038,409.049,29.171,45.068,44.996,0.00,0.08,-272.76,-272.81,-1,500,-939,15.5,1.6,-36.1,15.6,1.6,-35.7,5.73,2.18,-25.2,21.9
2016-03-15 00:47:00,0.0,1.96855,0.00057,408.720,0.066,0.0372,0.0016,140.009,44.568,31209.84123,1.96927,408.905,29.127,45.070,44.999,0.00,0.08,-272.75,-272.80,-2,500,-939,15.5,1.6,-35.8,15.6,1.7,-35.4,5.73,1.86,-25.2,21.9
2016-03-15 00:48:00,0.0,1.96770,0.00039,408.556,0.049,0.0375,0.0016,140.008,44.655,31336.91652,1.96849,408.743,29.103,45.073,45.001,0.00,0.08,-272.75,-272.80,-2,501,-939,15.5,1.7,-35.6,15.6,1.7,-35.2,5.73,2.19,-25.2,21.9
2016-03-15 00:49:00,0.0,1.96636,0.00065,408.315,0.087,0.0383,0.0017,140.009,44.770,31470.64654,1.96714,408.506,29.085,45.074,45.003,0.00,0.08,-272.75,-272.81,-1,500,-940,15.5,1.7,-35.3,15.6,1.7,-35.0,5.73,2.04,-25.2,21.9
2016-03-15 00:50:00,0.0,1.96486,0.00053,408.073,0.065,0.0391,0.0020,140.012,44.915,31630.01476,1.96567,408.269,29.084,45.075,45.004,0.00,0.08,-272.75,-272.80,-2,500,-939,15.5,1.7,-35.3,15.7,1.8,-34.9,5.73,1.92,-25.2,21.9
2016-03-15 00:51:00,0.0,1.96343,0.00057,407.743,0.111,0.0403,0.0019,140.011,45.079,31809.61547,1.96425,407.946,29.110,45.077,45.005,0.00,0.08,-272.75,-272.80,-2,501,-940,15.6,1.8,-34.9,15.7,1.8,-34.6,5.73,2.25,-25.2,21.9
2016-03-15 00:52:00,0.0,1.96148,0.00071,407.413,0.098,0.0404,0.0017,140.009,45.254,31971.51715,1.96233,407.616,29.142,45.078,45.007,0.00,0.08,-272.75,-272.81,-1,501,-940,15.6,1.8,-34.9,15.7,1.8,-34.5,5.73,1.88,-25.2,21.9
2016-03-15 00:53:00,0.0,1.95965,0.00078,407.079,0.103,0.0383,0.0015,140.005,45.428,32101.03220,1.96045,407.272,29.205,45.079,45.008,0.00,0.08,-272.76,-272.80,-2,501,-940,15.6,1.7,-35.3,15.7,1.8,-34.7,5.73,2.11,-25.2,21.9
2016-03-15 00:54:00,0.0,1.95781,0.00068,406.731,0.085,0.0389,0.0017,140.007,45.600,32210.18189,1.95863,406.927,29.267,45.079,45.007,0.00,0.08,-272.75,-272.80,-2,501,-940,15.6,1.7,-35.4,15.7,1.8,-34.8,5.73,2.13,-25.2,22.0
2016-03-15 00:55:00,0.0,1.95655,0.00059,406.459,0.085,0.0385,0.0019,140.002,45.760,32290.75466,1.95735,406.652,29.333,45.079,45.006,0.00,0.08,-272.74,-272.81,-1,501,-940,15.6,1.7,-35.5,15.7,1.8,-34.9,5.73,1.87,-25.2,21.9
2016-03-15 00:56:00,0.0,1.95535,0.00083,406.204,0.089,0.0391,0.0020,140.001,45.915,32355.55697,1.95613,406.399,29.383,45.078,45.005,0.00,0.08,-272.76,-272.81,-2,501,-940,15.6,1.7,-35.5,15.7,1.8,-34.9,5.73,2.23,-25.2,21.9
2016-03-15 00:57:00,0.0,1.95331,0.00057,405.866,0.100,0.0379,0.0020,140.001,46.059,32403.06302,1.95410,406.056,29.439,45.076,45.004,0.00,0.08,-272.75,-272.80,-2,501,-940,15.6,1.6,-35.6,15.7,1.7,-35.1,5.73,1.94,-25.2,21.9
2016-03-15 00:58:00,0.0,1.95118,0.00082,405.573,0.074,0.0393,0.0017,140.001,46.188,32436.89473,1.95203,405.769,29.507,45.075,45.002,0.00,0.08,-272.75,-272.79,-1,501,-940,15.6,1.7,-35.4,15.7,1.7,-35.0,5.73,2.03,-25.2,21.9
2016-03-15 00:59:00,0.0,1.94998,0.00067,405.355,0.079,0.0396,0.0022,140.002,46.305,32457.35659,1.95077,405.552,29.570,45.074,45.001,0.00,0.08,-272.76,-272.80,-2,501,-940,15.7,1.7,-35.1,15.7,1.8,-34.7,5.73,2.18,-25.2,22.0
2016-03-15 01:00:00,0.0,1.94785,0.00050,405.096,0.048,0.0397,0.0018,139.999,46.410,32464.36915,1.94865,405.291,29.618,45.073,45.000,0.00,0.08,-272.75,-272.81,-3,501,-940,15.6,1.7,-35.1,15.7,1.8,-34.6,5.73,1.85,-25.2,22.0
2016-03-15 01:01:00,0.0,1.94691,0.00076,404.913,0.068,0.0406,0.0011,139.999,46.503,32461.89512,1.94777,405.115,29.625,45.072,45.000,0.00,0.08,-272.75,-272.80,-1,501,-940,15.7,1.7,-35.1,15.7,1.8,-34.6,5.73,2.21,-25.1,22.0
2016-03-15 01:02:00,0.0,1.94549,0.00050,404.707,0.065,0.0413,0.0022,139.998,46.584,32453.50096,1.94631,404.910,29.650,45.072,45.000,0.00,0.08,-272.75,-272.81,-2,501,-940,15.7,1.8,-34.9,15.7,1.8,-34.6,5.73,2.00,-25.1,22.0
2016-03-15 01:03:00,0.0,1.94520,0.00037,404.592,0.026,0.0418,0.0016,139.998,46.651,32434.49138,1.94597,404.798,29.696,45.072,44.999,0.00,0.08,-272.76,-272.80,-2,501,-940,15.7,1.8,-34.8,15.8,1.9,-34.3,5.73,1.97,-25.1,22.0
2016-03-15 01:04:00,0.0,1.94452,0.00042,404.456,0.054,0.0422,0.0018,139.999,46.709,32412.11870,1.94536,404.662,29.750,45.071,44.999,0.00,0.08,-272.76,-272.80,-1,502,-940,15.7,1.8,-34.6,15.8,1.9,-34.2,5.73,2.22,-25.2,22.0
2016-03-15 01:05:00,0.0,1.94346,0.00048,404.312,0.054,0.0435,0.0014,139.997,46.755,32385.31134,1.94432,404.527,29.797,45.071,44.999,0.00,0.08,-272.74,-272.80,-2,502,-940,15.7,1.9,-34.3,15.8,1.9,-33.9,5.73,1.85,-25.1,22.0
2016-03-15 01:06:00,0.0,1.94313,0.00030,404.227,0.034,0.0440,0.0019,139.997,46.794,32354.56390,1.94397,404.440,29.821,45.071,44.999,0.00,0.08,-272.76,-272.81,-2,502,-940,15.7,1.9,-34.3,15.8,1.9,-33.8,5.73,2.16,-25.1,22.0
2016-03-15 01:07:00,0.0,1.94262,0.00021,404.160,0.046,0.0435,0.0018,139.996,46.826,32321.28327,1.94346,404.372,29.869,45.071,44.999,0.00,0.08,-272.75,-272.81,-1,502,-940,15.7,1.9,-34.3,15.8,1.9,-33.8,5.73,2.06,-25.1,22.0
2016-03-15 01:08:00,0.0,1.94266,0.00036,404.172,0.027,0.0430,0.0019,139.994,46.847,32280.76112,1.94346,404.380,29.874,45.071,44.999,0.00,0.08,-272.74,-272.80,-2,501,-940,15.7,1.8,-34.4,15.8,1.9,-34.0,5.73,1.91,-25.1,22.0
2016-03-15 01:09:00,0.0,1.94293,0.00041,404.186,0.030,0.0434,0.0019,139.995,46.859,32239.35354,1.94378,404.398,29.851,45.071,44.999,0.00,0.08,-272.76,-272.81,-2,502,-940,15.7,1.8,-34.4,15.8,1.9,-34.0,5.73,2.24,-25.1,22.0
2016-03-15 01:10:00,0.0,1.94297,0.00031,404.208,0.019,0.0437,0.0018,139.997,46.863,32196.53111,1.94379,404.419,29.816,45.071,44.999,0.00,0.08,-272.76,-272.81,-1,502,-940,15.7,1.8,-34.4,15.8,1.9,-34.0,5.73,1.88,-25.1,22.0
2016-03-15 01:11:00,0.0,1.94346,0.00021,404.226,0.025,0.0428,0.0015,139.997,46.860,32149.57391,1.94428,404.433,29.805,45.072,45.000,0.00,0.08,-272.76,-272.80,-2,502,-940,15.7,1.8,-34.4,15.8,1.9,-34.0,5.73,2.11,-25.1,22.0
2016-03-15 01:12:00,0.0,1.94330,0.00034,404.242,0.030,0.0424,0.0017,139.994,46.849,32105.29475,1.94410,404.449,29.756,45.072,45.000,0.00,0.08,-272.75,-272.80,-3,502,-940,15.7,1.8,-34.5,15.8,1.9,-34.0,5.73,2.12,-25.1,22.0
2016-03-15 01:13:00,0.0,1.94313,0.00028,404.283,0.032,0.0428,0.0025,139.996,46.830,32061.23948,1.94396,404.491,29.751,45.072,45.000,0.00,0.08,-272.75,-272.81,-1,502,-940,15.7,1.8,-34.6,15.8,1.9,-34.1,5.73,1.88,-25.1,22.0
2016-03-15 01:14:00,0.0,1.94395,0.00037,404.349,0.039,0.0420,0.0013,139.996,46.803,32014.04203,1.94474,404.551,29.750,45.072,45.001,0.00,0.08,-272.76,-272.80,-2,502,-940,15.7,1.8,-34.6,15.8,1.9,-34.1,5.73,2.24,-25.1,22.0
2016-03-15 01:15:00,0.0,1.94468,0.00052,404.426,0.055,0.0418,0.0016,139.997,46.769,31964.73292,1.94542,404.627,29.751,45.072,45.000,0.00,0.08,-272.74,-272.80,-2,502,-940,15.8,1.8,-34.6,15.9,1.9,-34.1,5.73,1.91,-25.1,22.0
2016-03-15 01:16:00,0.0,1.94535,0.00028,404.560,0.042,0.0414,0.0023,139.995,46.729,31915.28683,1.94615,404.760,29.781,45.072,45.000,0.00,0.08,-272.75,-272.80,-1,502,-940,15.8,1.8,-34.6,15.9,1.9,-34.2,5.73,2.06,-25.1,22.0
2016-03-15 01:17:00,0.0,1.94568,0.00050,404.681,0.044,0.0417,0.0017,139.995,46.681,31867.30992,1.94643,404.881,29.790,45.072,45.000,0.00,0.08,-272.76,-272.81,-2,502,-940,15.8,1.8,-34.7,15.9,1.9,-34.2,5.73,2.15,-25.1,22.1
2016-03-15 01:18:00,0.0,1.94657,0.00043,404.783,0.041,0.0408,0.0017,139.993,46.627,31817.05376,1.94734,404.981,29.795,45.072,45.000,0.00,0.08,-272.75,-272.80,-3,502,-940,15.8,1.8,-34.8,15.9,1.8,-34.4,5.73,1.86,-25.1,22.1
2016-03-15 01:19:00,0.0,1.94722,0.00047,404.912,0.043,0.0417,0.0014,139.995,46.568,31766.90485,1.94801,405.113,29.799,45.072,45.000,0.00,0.08,-272.76,-272.80,-1,502,-940,15.8,1.8,-34.8,15.9,1.8,-34.3,5.73,2.24,-25.1,22.1
2016-03-15 01:20:00,0.0,1.94799,0.00050,404.991,0.050,0.0418,0.0015,139.994,46.502,31719.97877,1.94876,405.192,29.783,45.071,44.999,0.00,0.08,-272.75,-272.82,-2,502,-940,15.8,1.8,-34.8,15.9,1.8,-34.3,5.73,1.93,-25.1,22.1
2016-03-15 01:21:00,0.0,1.94930,0.00047,405.142,0.045,0.0412,0.0017,139.997,46.431,31669.18984,1.95004,405.341,29.805,45.071,45.000,0.00,0.08,-272.74,-272.80,-3,502,-940,15.8,1.8,-34.7,15.9,1.8,-34.4,5.73,2.02,-25.1,22.1
2016-03-15 01:22:00,0.0,1.95054,0.00052,405.256,0.035,0.0426,0.0012,139.999,46.356,31622.57163,1.95131,405.462,29.816,45.071,44.999,0.00,0.26,-271.45,-272.67,-1,502,-940,15.9,1.8,-34.8,15.9,1.8,-34.3,5.43,2.24,-29.4,22.1
2016-03-15 01:23:00,0.0,1.95102,0.00035,405.414,0.055,0.0414,0.0017,139.996,46.277,31574.93974,1.95184,405.613,29.829,45.071,44.999,0.00,0.08,-272.76,-272.81,-2,502,-940,15.9,1.7,-34.9,15.9,1.8,-34.3,5.73,1.85,-25.0,22.1
2016-03-15 01:24:00,0.0,1.95068,0.00042,405.506,0.044,0.0393,0.0019,139.996,46.191,31530.61889,1.95143,405.696,29.855,45.071,44.999,0.00,0.08,-272.76,-272.80,-3,502,-940,15.8,1.7,-35.3,15.9,1.8,-34.6,5.73,2.22,-25.0,22.1
2016-03-15 01:25:00,0.0,1.95227,0.00069,405.697,0.063,0.0385,0.0016,139.998,46.101,31483.87912,1.95294,405.882,29.823,45.071,44.999,0.00,0.08,-272.75,-272.80,-1,502,-940,15.9,1.6,-35.8,15.9,1.7,-35.0,5.73,1.97,-25.0,22.2
2016-03-15 01:26:00,0.0,1.95337,0.00054,405.902,0.086,0.0374,0.0025,139.995,46.008,31437.27762,1.95403,406.080,29.813,45.071,44.999,0.00,0.08,-272.76,-272.81,-2,502,-940,15.9,1.6,-35.9,16.0,1.7,-35.2,5.73,1.99,-25.0,22.1
2016-03-15 01:27:00,0.0,1.95508,0.00089,406.147,0.091,0.0371,0.0016,139.995,45.911,31391.32818,1.95573,406.323,29.816,45.071,44.999,0.00,0.08,-272.76,-272.81,-3,502,-940,15.9,1.5,-36.2,16.0,1.6,-35.5,5.73,2.20,-25.0,22.2
2016-03-15 01:28:00,0.0,1.95732,0.00053,406.456,0.064,0.0350,0.0017,139.996,45.811,31348.83417,1.95793,406.622,29.813,45.071,44.999,0.00,0.08,-272.75,-272.80,-1,502,-940,15.9,1.5,-36.5,16.0,1.6,-35.7,5.73,1.85,-25.0,22.2
2016-03-15 01:29:00,0.0,1.95880,0.00066,406.635,0.063,0.0346,0.0014,139.995,45.708,31306.59008,1.95941,406.801,29.813,45.071,45.000,0.00,0.08,-272.75,-272.80,-2,502,-940,15.9,1.4,-36.8,16.0,1.6,-35.9,5.73,2.20,-25.0,22.2
2016-03-15 01:30:00,0.0,1.96048,0.00078,406.935,0.108,0.0340,0.0018,139.998,45.602,31265.59123,1.96106,407.095,29.813,45.071,44.999,0.00,0.08,-272.75,-272.81,-2,503,-940,15.9,1.4,-37.0,16.0,1.5,-36.3,5.73,1.99,-25.0,22.2
2016-03-15 01:31:00,0.0,1.96157,0.00051,407.185,0.057,0.0327,0.0016,139.999,45.494,31226.43412,1.96222,407.342,29.813,45.071,45.000,0.00,0.08,-272.75,-272.81,-1,502,-940,16.0,1.4,-37.3,16.0,1.5,-36.5,5.73,1.96,-25.0,22.2
2016-03-15 01:32:00,0.0,1.96262,0.00069,407.433,0.099,0.0338,0.0017,139.996,45.383,31186.47005,1.96322,407.594,29.812,45.072,45.000,0.00,0.08,-272.74,-272.81,-2,502,-940,16.0,1.4,-36.9,16.0,1.5,-36.3,5.73,2.21,-25.0,22.2
2016-03-15 01:33:00,0.0,1.96346,0.00049,407.681,0.083,0.0349,0.0016,139.996,45.267,31150.42469,1.96411,407.848,29.764,45.072,45.000,0.00,0.08,-272.75,-272.81,-2,503,-940,16.0,1.4,-36.6,16.0,1.5,-36.0,5.73,1.85,-25.0,22.2
2016-03-15 01:34:00,0.0,1.96478,0.00048,407.899,0.048,0.0337,0.0018,139.999,45.151,31112.90673,1.96540,408.062,29.750,45.072,45.000,0.00,0.08,-272.75,-272.81,-1,503,-940,16.0,1.4,-36.7,16.0,1.5,-36.0,5.73,2.19,-25.0,22.2
2016-03-15 01:35:00,0.0,1.96596,0.00066,408.066,0.086,0.0332,0.0017,139.998,45.034,31071.33004,1.96653,408.223,29.738,45.072,45.000,0.00,0.08,-272.74,-272.80,-3,502,-940,16.0,1.4,-36.8,16.0,1.5,-36.2,5.73,2.00,-25.0,22.2
2016-03-15 01:36:00,0.0,1.96745,0.00029,408.323,0.070,0.0337,0.0017,139.996,44.916,31022.94608,1.96809,408.486,29.715,45.072,45.000,0.00,0.08,-272.76,-272.81,-2,503,-940,16.0,1.4,-36.9,16.1,1.5,-36.3,5.73,1.97,-25.0,22.3
2016-03-15 01:37:00,0.0,1.96762,0.00039,408.446,0.055,0.0334,0.0017,139.992,44.800,30955.71023,1.96822,408.607,29.694,45.071,44.998,0.00,0.08,-272.76,-272.81,-1,502,-940,16.0,1.4,-36.8,16.0,1.5,-36.2,5.73,2.22,-25.0,22.2
2016-03-15 01:38:00,0.0,1.96880,0.00095,408.632,0.112,0.0350,0.0017,139.996,44.691,30897.78111,1.96943,408.798,29.686,45.068,44.995,0.00,0.08,-272.75,-272.81,-3,502,-940,16.0,1.5,-36.4,16.1,1.6,-35.9,5.73,1.85,-25.0,22.3
2016-03-15 01:39:00,0.0,1.97048,0.00046,408.887,0.048,0.0353,0.0016,139.998,44.601,30883.96443,1.97113,409.057,29.639,45.066,44.993,0.00,0.08,-272.76,-272.80,-2,503,-940,16.1,1.5,-36.2,16.1,1.6,-35.6,5.73,2.18,-25.0,22.3
2016-03-15 01:40:00,0.0,1.97106,0.00040,409.022,0.049,0.0356,0.0017,140.001,44.538,30902.11825,1.97176,409.196,29.590,45.065,44.993,0.00,0.08,-272.75,-272.81,-1,503,-940,16.1,1.5,-36.1,16.1,1.6,-35.6,5.73,2.02,-25.0,22.3
2016-03-15 01:41:00,0.0,1.97104,0.00028,408.995,0.027,0.0349,0.0016,140.002,44.499,30946.45723,1.97171,409.167,29.537,45.065,44.994,0.00,0.08,-272.75,-272.80,-3,502,-940,16.0,1.5,-36.2,16.1,1.6,-35.6,5.73,1.93,-24.9,22.3
2016-03-15 01:42:00,0.0,1.97115,0.00037,409.041,0.040,0.0357,0.0019,140.008,44.491,31019.13474,1.97183,409.216,29.501,45.066,44.995,0.00,0.08,-272.75,-272.80,-2,503,-940,16.1,1.5,-36.2,16.1,1.6,-35.7,5.73,2.23,-24.9,22.3
2016-03-15 01:43:00,0.0,1.97113,0.00027,409.051,0.044,0.0354,0.0018,140.007,44.515,31119.45426,1.97182,409.223,29.495,45.068,44.997,0.00,0.08,-272.76,-272.81,-1,502,-940,16.1,1.5,-36.2,16.1,1.6,-35.5,5.73,1.85,-24.9,22.3
2016-03-15 01:44:00,0.0,1.97025,0.00049,408.902,0.072,0.0352,0.0020,140.010,44.570,31240.11535,1.97096,409.080,29.474,45.070,44.999,0.00,0.08,-272.76,-272.81,-3,503,-940,16.1,1.5,-36.2,16.1,1.6,-35.5,5.73,2.15,-24.9,22.3
2016-03-15 01:45:00,0.0,1.96930,0.00071,408.688,0.115,0.0365,0.0016,140.007,44.656,31363.78917,1.97009,408.874,29.467,45.073,45.001,0.00,0.08,-272.74,-272.81,-2,503,-940,16.1,1.5,-36.0,16.1,1.6,-35.5,5.73,2.05,-25.0,22.3